LARETS

Last updated on Mon Nov 03 2025 00:03:54 GMT+0000 (Coordinated Universal Time)

1 27944U 03042F 25306.45407969 .00000103 00000+0 29282-4 0 9995 2 27944 98.3875 99.2830 0012837 29.0530 331.1383 14.63804300180199
UTC large
Height (km)
Speed (km/s)
/
Latitude / Longitude
Inclination (degrees)
Orbital Period (minutes)
Azimuth
Elevation
Range (km)
Doppler Factor

Next 0 passes for location: London (51.5072 / 0.1276)

Sorry there are no passes over London.